Lakeville, MN

11:18 PM CST on January 16, 2018 (GMT -0600)
Airlake

Weather History for KLVN - January, 2013

Change the Weather History Date:

Thursday, January 10, 2013

  Actual Average Record
Temperature  
Mean Temperature 26 °F -  
Max Temperature 37 °F 18 °F 51 °F (2012)
Min Temperature 14 °F 0 °F -30 °F (1982)
Degree Days  
Heating Degree Days 40    
Moisture  
Dew Point 25 °F    
Average Humidity 79    
Maximum Humidity 100    
Minimum Humidity 52    
Precipitation  
Precipitation 0.18 in - - ()
Sea Level Pressure  
Sea Level Pressure 30.08 in    
Wind  
Wind Speed 6 mph (SE)    
Max Wind Speed 14 mph    
Max Gust Speed -    
Visibility 8 miles    
Events Fog , Rain    
Averages and records for this station are not official NWS values.
T = Trace of Precipitation, MM = Missing Value Source: NWS Daily Summary

Daily Weather History Graph

Daily Weather History Graph

Search for Another Location

Airport or City:

Trip Planner

Search our weather history database for the weather conditions in past years. The results will help you decide how hot, cold, wet, or windy it might be!

Date:

Astronomy

Jan. 10, 2013 Rise Set
Actual Time 7:48 AM CST 4:53 PM CST
Civil Twilight 7:15 AM CST 5:25 PM CST
Nautical Twilight 6:39 AM CST 6:02 PM CST
Astronomical Twilight 6:04 AM CST 6:37 PM CST
Moon 6:28 AM CST (1/10) 4:02 PM CST (1/10)
Length of Visible Light 10h 10m
Length of Day
9h 04m
Waning Crescent, 2% of the Moon is Illuminated
Jan 10
Waning Crescent
Jan 11
New
Jan 18
First Quarter
Jan 26
Full
Feb 3
Last Quarter

Hourly Weather History & Observations

Time (CST) Temp. Windchill Dew Point Humidity Pressure Visibility Wind Dir Wind Speed Gust Speed Precip Events Conditions
12:10 AM 19.4 °F - 17.6 °F 93% 30.29 in 10.0 mi Calm Calm - N/A   Clear
12:30 AM 15.8 °F - 12.2 °F 86% 30.30 in 10.0 mi Calm Calm - N/A   Clear
12:49 AM 19.4 °F - 17.6 °F 93% 30.30 in 10.0 mi Calm Calm - N/A   Clear
1:10 AM 14.0 °F - 12.2 °F 93% 30.30 in 10.0 mi Calm Calm - N/A   Clear
1:29 AM 17.6 °F 10.7 °F 15.8 °F 93% 30.30 in 10.0 mi SSE 4.6 mph - N/A   Clear
1:50 AM 24.8 °F 17.9 °F 21.2 °F 86% 30.30 in 10.0 mi SSE 5.8 mph - N/A   Clear
2:10 AM 28.4 °F 21.2 °F 23.0 °F 80% 30.30 in 10.0 mi South 6.9 mph - N/A   Clear
2:29 AM 30.2 °F 22.6 °F 24.8 °F 80% 30.29 in 10.0 mi South 8.1 mph - N/A   Clear
2:50 AM 32.0 °F 24.2 °F 24.8 °F 75% 30.29 in 10.0 mi South 9.2 mph - N/A   Clear
3:10 AM 32.0 °F 25.6 °F 23.0 °F 69% 30.28 in 10.0 mi South 6.9 mph - N/A   Clear
3:29 AM 33.8 °F 25.8 °F 23.0 °F 65% 30.28 in 10.0 mi South 10.4 mph - N/A   Clear
3:50 AM 33.8 °F 25.8 °F 24.8 °F 70% 30.27 in 10.0 mi South 10.4 mph - N/A   Clear
4:10 AM 33.8 °F 26.4 °F 24.8 °F 70% 30.27 in 10.0 mi South 9.2 mph - N/A   Clear
4:30 AM 32.0 °F 24.2 °F 23.0 °F 69% 30.27 in 10.0 mi South 9.2 mph - N/A   Clear
4:50 AM 32.0 °F 25.6 °F 23.0 °F 69% 30.26 in 10.0 mi South 6.9 mph - N/A   Clear
5:10 AM 32.0 °F 25.6 °F 23.0 °F 69% 30.26 in 10.0 mi South 6.9 mph - N/A   Clear
5:30 AM 32.0 °F 23.6 °F 23.0 °F 69% 30.25 in 10.0 mi South 10.4 mph - N/A   Clear
5:50 AM 30.2 °F 21.9 °F 23.0 °F 75% 30.25 in 10.0 mi South 9.2 mph - N/A   Clear
6:30 AM 30.2 °F 22.6 °F 23.0 °F 75% 30.26 in 10.0 mi South 8.1 mph - N/A   Clear
6:50 AM 30.2 °F 21.9 °F 23.0 °F 75% 30.25 in 10.0 mi South 9.2 mph - N/A   Clear
7:09 AM 32.0 °F 24.2 °F 23.0 °F 69% 30.25 in 10.0 mi South 9.2 mph - N/A   Clear
7:30 AM 32.0 °F 23.6 °F 24.8 °F 75% 30.25 in 10.0 mi South 10.4 mph - N/A   Clear
7:50 AM 32.0 °F 24.2 °F 23.0 °F 69% 30.24 in 10.0 mi South 9.2 mph - N/A   Clear
8:09 AM 30.2 °F 23.4 °F 23.0 °F 75% 30.24 in 10.0 mi SSE 6.9 mph - N/A   Clear
8:30 AM 28.4 °F 24.6 °F 21.2 °F 74% 30.23 in 10.0 mi SSE 3.5 mph - N/A   Clear
8:50 AM 30.2 °F 25.4 °F 23.0 °F 75% 30.23 in 10.0 mi South 4.6 mph - N/A   Clear
9:10 AM 32.0 °F 24.8 °F 23.0 °F 69% 30.22 in 10.0 mi SSE 8.1 mph - N/A   Clear
9:29 AM 32.0 °F 26.4 °F 23.0 °F 69% 30.22 in 10.0 mi SE 5.8 mph - N/A   Clear
9:50 AM 30.2 °F 24.3 °F 23.0 °F 75% 30.21 in 10.0 mi SE 5.8 mph - N/A   Clear
10:10 AM 32.0 °F 26.4 °F 23.0 °F 69% 30.20 in 10.0 mi SE 5.8 mph - N/A   Clear
10:29 AM 33.8 °F 28.6 °F 23.0 °F 65% 30.19 in 10.0 mi SSE 5.8 mph - N/A   Clear
10:50 AM 35.6 °F 29.9 °F 24.8 °F 65% 30.18 in 10.0 mi SE 6.9 mph - N/A   Clear
11:10 AM 35.6 °F 29.9 °F 23.0 °F 60% 30.17 in 10.0 mi SSE 6.9 mph - N/A   Clear
11:29 AM 37.4 °F 31.4 °F 23.0 °F 56% 30.16 in 10.0 mi SSE 8.1 mph - N/A   Clear
11:50 AM 37.4 °F 30.8 °F 21.2 °F 52% 30.14 in 10.0 mi SSE 9.2 mph - N/A   Clear
12:10 PM 37.4 °F 31.4 °F 21.2 °F 52% 30.12 in 10.0 mi SE 8.1 mph - N/A   Clear
12:29 PM 37.4 °F 32.1 °F 24.8 °F 60% 30.10 in 10.0 mi ESE 6.9 mph - N/A   Clear
12:50 PM 35.6 °F 29.2 °F 24.8 °F 65% 30.08 in 10.0 mi ESE 8.1 mph - N/A   Clear
1:29 PM 35.6 °F 28.6 °F 23.0 °F 60% 30.05 in 10.0 mi ESE 9.2 mph - N/A   Clear
1:50 PM 35.6 °F 28.0 °F 21.2 °F 56% 30.04 in 10.0 mi ESE 10.4 mph - N/A   Clear
2:10 PM 35.6 °F 29.2 °F 21.2 °F 56% 30.03 in 10.0 mi ESE 8.1 mph - N/A   Scattered Clouds
2:29 PM 37.4 °F 30.3 °F 21.2 °F 52% 30.03 in 10.0 mi ESE 10.4 mph - N/A   Mostly Cloudy
2:50 PM 37.4 °F 31.4 °F 21.2 °F 52% 30.02 in 10.0 mi ESE 8.1 mph - N/A   Overcast
3:10 PM 35.6 °F 28.0 °F 24.8 °F 65% 30.01 in 10.0 mi East 10.4 mph - N/A   Mostly Cloudy
3:29 PM 33.8 °F 26.4 °F 24.8 °F 70% 30.00 in 10.0 mi East 9.2 mph - N/A   Overcast
3:50 PM 33.8 °F 25.8 °F 24.8 °F 70% 29.99 in 10.0 mi East 10.4 mph - N/A   Mostly Cloudy
4:10 PM 33.8 °F 25.8 °F 26.6 °F 75% 29.98 in 10.0 mi ESE 10.4 mph - N/A Rain Light Rain
4:29 PM 33.8 °F 27.0 °F 26.6 °F 75% 29.97 in 7.0 mi East 8.1 mph - 0.01 in Rain Light Rain
4:50 PM 32.0 °F 25.6 °F 28.4 °F 87% 29.95 in 7.0 mi East 6.9 mph - 0.02 in   Overcast
5:10 PM 32.0 °F 24.2 °F 28.4 °F 87% 29.93 in 5.0 mi East 9.2 mph - 0.01 in   Overcast
5:29 PM 30.2 °F 22.6 °F 30.2 °F 100% 29.94 in 4.0 mi ESE 8.1 mph - 0.03 in   Overcast
5:50 PM 30.2 °F 21.3 °F 30.2 °F 100% 29.92 in 3.0 mi East 10.4 mph - 0.06 in   Overcast
6:10 PM 30.2 °F 21.9 °F 30.2 °F 100% 29.91 in 2.5 mi ESE 9.2 mph - 0.04 in   Overcast
6:29 PM 30.2 °F 19.8 °F 30.2 °F 100% 29.89 in 4.0 mi ESE 13.8 mph - 0.05 in   Overcast
6:50 PM 30.2 °F 20.8 °F 30.2 °F 100% 29.87 in 7.0 mi ESE 11.5 mph - 0.05 in   Overcast
7:10 PM 30.2 °F 21.3 °F 30.2 °F 100% 29.86 in 5.0 mi ESE 10.4 mph - 0.01 in   Overcast
7:29 PM 30.2 °F 21.9 °F 30.2 °F 100% 29.85 in 5.0 mi ESE 9.2 mph - 0.02 in   Overcast
7:50 PM 30.2 °F 22.6 °F 30.2 °F 100% 29.83 in 5.0 mi ESE 8.1 mph - 0.03 in   Overcast
8:10 PM 30.2 °F 22.6 °F 30.2 °F 100% 29.83 in 5.0 mi SE 8.1 mph - 0.01 in   Overcast
8:29 PM 32.0 °F 24.8 °F 30.2 °F 93% 29.82 in 4.0 mi SE 8.1 mph - 0.02 in   Overcast
8:50 PM 32.0 °F 24.2 °F 32.0 °F 100% 29.80 in 7.0 mi SE 9.2 mph - 0.02 in   Overcast
9:10 PM 32.0 °F 24.8 °F 32.0 °F 100% 29.78 in 3.0 mi SE 8.1 mph - N/A   Overcast
9:29 PM 32.0 °F 25.6 °F 32.0 °F 100% 29.78 in 2.0 mi SE 6.9 mph - N/A Rain Rain
9:50 PM 32.0 °F 25.6 °F 32.0 °F 100% 29.75 in 1.5 mi SE 6.9 mph - N/A   Overcast
10:10 PM 33.8 °F 27.0 °F 32.0 °F 93% 29.75 in 1.2 mi SSE 8.1 mph - N/A   Overcast
10:29 PM 33.8 °F 27.0 °F 32.0 °F 93% 29.75 in 1.0 mi SSE 8.1 mph - N/A   Overcast
10:50 PM 33.8 °F 27.0 °F 32.0 °F 93% 29.75 in 0.8 mi SSE 8.1 mph - N/A   Overcast
11:10 PM 33.8 °F 27.7 °F 33.8 °F 100% 29.74 in 0.5 mi SE 6.9 mph - N/A Fog Fog
11:29 PM 33.8 °F 27.0 °F 33.8 °F 100% 29.74 in 0.5 mi SSE 8.1 mph - N/A Fog Fog
11:50 PM 33.8 °F 27.7 °F 33.8 °F 100% 29.74 in 0.8 mi SSE 6.9 mph - N/A   Overcast